Location: *
(42.3442°N, 9.2072°E)
Time: 00:17:46
(UTC+00:00)

Cosmos 1892 - Pass Details

Date: 09 April 2020
Orbit: 503 x 526 km, 82.5° (Epoch: 05 June)

Event Time Altitude Azimuth Distance (km) Brightness Sun altitude
Rises 19:57:51 0° 358° (N) 2,671 6.8 -21.1°
Reaches altitude 10° 20:00:05 10° 4° (N) 1,778 5.8 -21.5°
Enters shadow 20:02:57 38° 40° (NE) 825 3.6 -21.9°
